CZ-3B DEB, 42464

Orbit data source: Space-Track

CZ-3B DEB, 42464 is space debris in HEO originally from a launch on Sat, 04 Sep 2010 UTC launched from the Xichang Space Center, China (XSC). Debris objects in space refer to the collection of defunct objects orbiting the Earth. Examples of debris include non-operational satellites, rocket bodies, and fragments generated from explosions, collisions, or faulty payload assembly.

Loading next visibility...
Identifier
42464, 2010-042AF
Orbit
HEO
Country
Flag of CNCN / PRC
Related business
Manufacturer
CALT
Mission
Spacecraft
Bus & Motor
Unknown
Mass
Unknown
Launch date (UTC)
2010-09-04 (16 years ago)
Launch vehicle
Unknown
Launch site
Xichang Space Center, China (XSC)
Object type
Payload
Rocket body
Debris
Shape & HBR
Unknown shape, 0.3 m
Radar Cross Section
Medium (>0.1 m² and <1 m²)

Expand to show TLE details & history
Last TLE update: 4 days ago

TLE from 4 days ago
0 CZ-3B DEB
1 42464U 10042AF  26232.16175717 -.00000191  00000-0  00000-0 0  9999
2 42464  23.9795 258.2180 7363467  67.2927 351.4459  1.82435254 83693
Epoch: 2026-08-20T03:52Z
TLE epoch observation values (Epoch: 2026-08-20T03:52:55.819Z)
Latitude
-0.00003°
Longitude
-128.51387°
Altitude
3,664.253 km
Speed
8.08 km/s
True Right ascension
17h 12m 53s
True Declination
0° 00' 00"
Sunlit
Object was in daylight at epoch
Visualization orbit readout
Latitude
Unknown
Longitude
Unknown
Altitude
Unknown
Speed
Unknown
Apparent Right ascension
Unknown
Apparent Declination
Unknown
Sunlit
N/A
Visualization observer readout
Local Sidereal Time
00:48:42
Azimuth
Unknown
Elevation
Unknown
Doppler factor
Unknown
Orbital elements
Apogee altitude
42,753.068 km
Perigee altitude
1,082.127 km
Semi-major axis
28,295.734 km
Eccentricity
0.73635
Inclination
23.9795°
RAAN
258.218°
Arg. of periapsis
67.2927°
True anomaly
292.8143°
Mean anomaly
351.4459°
Eccentric anomaly
330.97752°
Mean motion
0.456 °/min
Orbital period
789.48 mins
BSTAR
0
Loading maneuver chart data...
Computing Atmospheric mass density...
Loading historical data...
Loading historical data...
Loading historical data...
Loading historical data...
Loading historical data...
Loading historical data...
Loading historical data...

Documentation

Showing up to 5 results
|